Simultaneous Nadir Overpasses (SNOs) Predictions

Prediction of SNOs near US between NOAA-19 and NPP Satellite Orbit:

Table of predicted SNOs near US for the next 10.0 days since TLE Epoch: 4/13/2012
<
Index Date (NOAA-19) Time (NOAA-19) NOAA-19 Lat,Lon Date (NPP) Time (NPP) NPP Lat,Lon Distance(km) Time Diff (sec)
1 04/21/2012 07:30:22 49.91, -78.94 04/21/2012 07:32:02 50.38, -81.46 187.17 100
2 04/21/2012 09:12:27 49.93,-104.45 04/21/2012 09:13:32 50.37,-106.84 177.04 65
3 04/21/2012 17:20:36 49.98, -67.75 04/21/2012 17:18:54 49.74, -69.16 104.16 102
4 04/21/2012 19:02:40 49.95, -93.26 04/21/2012 19:00:23 49.75, -94.53 94.02 137
5 04/21/2012 20:44:46 49.99,-118.80 04/21/2012 20:41:54 49.81,-119.94 83.76 172
6 04/22/2012 07:26:07 27.30, -83.90 04/22/2012 07:19:35 27.39, -84.43 53.37 392
7 04/22/2012 09:10:17
